カタログに戻る

KUIPER-00520

運用中通信LEO
NORAD 69601·PAYLOAD·🇺🇸 United States

打ち上げ Jun 17, 2026 から Guiana Space Centre

Loading…

次のパス (今後24時間)

TLE

最新Source: CelesTrak SupGP

元期: Sep 14, 2026, 17:38 UTC

1 69601C 26140K   26257.73515046  .00005202  00000+0  73672-3 0  2571
2 69601  51.9020 341.5359 0001036 173.0152  39.5551 14.76592440    11

AllMySatでKUIPER-00520をリアルタイム追跡

Download on the App Store